Flag for Luxembourg Weather past 2 weeks in Differdange, Luxembourg

30 °F

Snow flurries. Ice fog.

Feels Like: 23 °F
Forecast: 32 / 37 °F
Wind: 8 mph from South

Location: Luxembourg Airport

Current Time: Nov 28, 2015 at 12:43:45 AM

Latest Report: Nov 27, 2015 at 11:50 PM

Visibility: 0 mi

Pressure: 29.89 "Hg

Humidity: 100%

Dew point: 30 °F

Location of DifferdangeLocation

Historic Weather in Differdange — Graph


Differdange temperature yesterday

Maximum temperature yesterday: 34 °F (at 12:20 AM)
Minimum temperature yesterday: 28 °F (at 6:20 AM)
Average temperature yesterday: 31 °F

Past Weeks' High & Low Weather Summary

High57 °F (Nov 17, 9:50 PM)100% (Nov 12, 11:20 PM)30.42 "Hg (Nov 12, 11:20 PM)
Low27 °F (Nov 24, 8:50 AM)65% (Nov 23, 1:20 PM)29.42 "Hg (Nov 21, 9:20 AM)
Average42 °F92%29.98 "Hg
* Reported Nov 12 11:20 PM — Nov 27 11:20 PM, Differdange, Weather by CustomWeather, © 2015

Note: Actual official high and low records may vary slightly from our data, if they occured in-between our weather recording intervals... More about our weather records


Differdange weather history for previous 24 hours

Time TempWeatherWind HumidityBarometerVisibility
11:20 PM
Fri, Nov 27
30 °FIce fog.8 mph100%29.89 "Hg0 mi
10:50 PM28 °FIce fog.9 mph100%29.89 "Hg0 mi
10:20 PM30 °FSnow flurries. Ice fog.7 mph100%29.92 "Hg0 mi
9:50 PM30 °FIce fog.8 mph100%29.92 "Hg0 mi
9:20 PM30 °FIce fog.8 mph100%29.92 "Hg0 mi
8:50 PM28 °FIce fog.8 mph100%29.95 "Hg0 mi
8:20 PM28 °FIce fog.8 mph100%29.95 "Hg0 mi
7:50 PM28 °FLight freezing rain. Ice fog.6 mph100%29.95 "Hg0 mi
7:20 PM30 °FLight freezing rain. Ice fog.6 mph100%29.95 "Hg0 mi
6:50 PM30 °FLight freezing rain. Ice fog.7 mph100%29.95 "Hg0 mi
6:20 PM28 °FLight snow. Ice fog.5 mph100%29.95 "Hg0 mi
5:50 PM28 °FIce fog.5 mph100%29.98 "Hg0 mi
5:20 PM30 °FIce fog.5 mph100%29.98 "Hg0 mi
4:50 PM30 °FIce fog.5 mph100%29.98 "Hg0 mi
4:20 PM30 °FIce fog.5 mph100%29.98 "Hg0 mi
3:50 PM30 °FIce fog.3 mph100%29.98 "Hg0 mi
3:20 PM32 °FDense fog.5 mph100%30.01 "Hg0 mi
2:50 PM32 °FPartly sunny.2 mph100%30.01 "Hg0 mi
2:20 PM32 °FFog.3 mph100%30.01 "Hg0 mi
1:50 PM32 °FFog.2 mph100%30.04 "Hg0 mi
1:20 PM34 °FFog.2 mph100%30.04 "Hg0 mi
12:50 PM32 °FFog.1 mph100%30.04 "Hg0 mi
12:20 PM32 °FFog.2 mph100%30.07 "Hg0 mi
11:50 AM32 °FFog.3 mph100%30.07 "Hg0 mi
11:20 AM32 °FIce fog.2 mph100%30.09 "Hg0 mi
10:50 AM30 °FIce fog.1 mph100%30.09 "Hg0 mi
10:20 AM30 °FIce fog.1 mph100%30.09 "Hg1 mi
9:50 AM30 °FIce fog.1 mph100%30.09 "Hg1 mi
9:20 AM30 °FIce fog.No wind100%30.09 "Hg2 mi
8:50 AM30 °FIce fog.No wind93%30.09 "Hg2 mi
8:20 AM30 °FIce fog.1 mph100%30.09 "Hg2 mi
7:50 AM28 °FPassing clouds.No wind93%30.09 "Hg1 mi
7:20 AM28 °FPassing clouds.No wind100%30.09 "Hg1 mi
6:50 AM28 °FPassing clouds.1 mph100%30.09 "Hg1 mi
6:20 AM28 °FIce fog.No wind100%30.09 "Hg1 mi
5:50 AM32 °FIce fog.2 mph100%30.09 "Hg1 mi
4:50 AM32 °FPassing clouds.5 mph100%30.12 "Hg1 mi
4:20 AM32 °FLight fog.5 mph100%30.12 "Hg1 mi
3:50 AM32 °FIce fog.5 mph100%30.15 "Hg1 mi
3:20 AM30 °FIce fog.3 mph100%30.15 "Hg1 mi
2:50 AM34 °FChilly.5 mph93%30.15 "Hg4 mi
2:20 AM34 °FChilly.5 mph93%30.15 "HgN/A
1:50 AM34 °FChilly.1 mph100%30.15 "HgN/A
1:20 AM30 °FChilly.1 mph93%30.15 "HgN/A
12:50 AM30 °FClear.No wind100%30.15 "Hg10 mi
12:20 AM34 °FChilly.3 mph93%30.15 "HgN/A
Weather by CustomWeather, © 2015

See weather overviewHow to use our weather pages